Location: Unspecified
(0.0000°N, 0.0000°E)
Time: 15:43:26
(UTC+00:00)

Hubble Space Telescope - Pass Details

Date: 02 August 2020
Orbit: 536 x 540 km, 28.5° (Epoch: 08 August)

Event Time Altitude Azimuth Distance (km) Brightness Sun altitude
Exits shadow 03:58:14 27° 85° (E) 1,058 2.8 -30.3°
Drops below altitude 10° 04:00:15 10° 73° (ENE) 1,781 4.3 -29.9°
Sets 04:02:33 0° 68° (ENE) 2,671 5.5 -29.3°
